Regional Weather Roundup
Issued by NWS

Home | Current Version | Previous Version | Text Only | Print | Product List | Glossary Off
Versions: 1 2 3 4 5 6 7 8 9 10 11 12 13 14 15 16 17 18 19 20 21 22 23 24 25 26 27 28 29 30 31 32 33 34 35 36 37 38 39 40 41 42 43 44 45 46 47 48 49 50

000
ASUS43 KDTX 282110
RWRMI
MICHIGAN HOURLY REGIONAL WEATHER ROUNDUP
NATIONAL WEATHER SERVICE DETROIT/PONTIAC MI
400 PM EST FRI NOV 28 2014

NOTE: "FAIR" INDICATES FEW OR NO CLOUDS BELOW 12,000 FEET WITH NO
SIGNIFICANT WEATHER AND/OR OBSTRUCTION TO VISIBILITY.

MIZ047>049-052>055-059>063-066>070-074>076-081>083-282200-
SOUTHEAST LOWER MICHIGAN

CITY           SKY/WX    TMP DP  RH WIND       PRES   REMARKS
ADRIAN         CLOUDY    25  20  81 SW12      30.18F
ALMA           LGT SNOW  24  22  91 S7        30.14S
ANN ARBOR      CLOUDY    26  16  65 S10       30.17F
BAD AXE        CLOUDY    25  15  66 S6        30.17F
DETROIT CITY   CLOUDY    28  15  58 S10       30.20F
DETROIT        FLURRIES  27  17  66 S10       30.20F
FLINT          LGT SNOW  26  19  74 S7        30.17S
GROSSE ILE     CLOUDY    28  18  64 S6        30.19F
HILLSDALE      CLOUDY    26  21  80 S9        30.12F
HOWELL         LGT SNOW  25  19  77 S7        30.14F

CITY           SKY/WX    TMP DP  RH WIND       PRES   REMARKS
JACKSON        CLOUDY    25  18  74 S9        30.14F
LAMBERTVILLE   LGT SNOW  28  23  80 CALM      30.20F VSB 3/4
LANSING        LGT SNOW  25  17  72 S9        30.13F
LAPEER         NOT AVBL
MASON          CLOUDY    26  19  73 S8        30.14S
MONROE         FLURRIES  27  19  74 S8        30.18F
MT. CLEMENS    MOCLDY    27  17  65 S12       30.17F
PONTIAC        LGT SNOW  24  17  74 S5        30.15F
PORT HOPE        N/A     24  12  60 SW3       30.16F
PORT HURON     MOCLDY    27  14  59 S9        30.19F
TRI CITIES     LGT SNOW  26  19  74 S8        30.16S
YPSILANTI      CLOUDY    30  16  56 S13       30.18F
$$
MIZ043>046-050>051-056>058-064>065-071>073-077>080-282200-
SOUTHWEST LOWER MICHIGAN

CITY           SKY/WX    TMP DP  RH WIND       PRES   REMARKS
BATTLE CREEK   CLOUDY    27  18  69 S10       30.10F
BENTON HARBOR  CLOUDY    27  18  69 SE15      30.05F
BIG RAPIDS     CLOUDY    24  21  88 S8        30.07F
COLDWATER      CLOUDY    28  20  73 S10       30.12F
HOLLAND        CLOUDY    26  18  71 SE12      30.07F
GRAND RAPIDS   FLURRIES  25  18  74 S12       30.10F
KALAMAZOO      CLOUDY    26  17  68 S9        30.10F
MARSHALL       CLOUDY    24  19  78 SE9       30.12F
MUSKEGON       CLOUDY    25  17  72 SE14      30.07F
$$
MIZ016>042-282200-
NORTHERN LOWER MICHIGAN

CITY           SKY/WX    TMP DP  RH WIND       PRES   REMARKS
ALPENA         CLOUDY    22  14  71 S8        30.14F
BEAVER ISLAND  LGT SNOW  25  23  92 CALM      30.06F
BELLAIRE       LGT SNOW  24  20  84 SE3       30.10F
CADILLAC       CLOUDY    22  18  85 SE7       30.03F
CHARLEVOIX     LGT SNOW  23  20  88 SE7       30.11F
FRANKFORT      LGT SNOW  25  22  89 SE7       30.05F
GAYLORD        LGT SNOW  20  15  81 S7        30.05F
GRAYLING       LGT SNOW  21  18  86 SE6       30.08F
HARBOR SPRINGS MOCLDY    23  16  75 S5        30.08F
HOUGHTON LAKE  LGT SNOW  21  16  81 SE9       30.09F
MANISTEE       MOCLDY    25  19  80 SE7       30.05F
OSCODA         CLOUDY    24  14  66 S5        30.15F
PELLSTON       CLOUDY    23  17  78 S6        30.09F
TRAVERSE CITY  FLURRIES  25  18  74 SE6       30.07F
$$
MIZ007>008-015-282200-
EASTERN UPPER MICHIGAN

CITY           SKY/WX    TMP DP  RH WIND       PRES   REMARKS
KINROSS        CLOUDY    19  18  93 E7        30.09S
MACKINAC ISLAN LGT SNOW  23  18  81 S3        30.08S
NEWBERRY       FLURRIES  18  13  81 SE3       30.06S
S. S. MARIE    CLOUDY    17  12  80 E5        30.13R
$$
MIZ004>006-011>014-085-282200-
CENTRAL UPPER MICHIGAN

CITY           SKY/WX    TMP DP  RH WIND       PRES   REMARKS
MANISTIQUE     FLURRIES  21  14  75 CALM      30.05F
ESCANABA       CLOUDY    18  12  79 CALM      30.03F
MENOMINEE      CLOUDY    19  18  93 SE3       30.00F
SAWYER-GWINN   CLOUDY    16  10  79 S7        29.98F
$$
MIZ001>003-009>011-084-282200-
WESTERN UPPER MICHIGAN

CITY           SKY/WX    TMP DP  RH WIND       PRES   REMARKS
IRON MOUNTAIN  CLOUDY    13   8  81 E6        29.96F
HOUGHTON       CLOUDY    16   4  59 SE3       29.96F
COPPER HARBOR    N/A     20  11  68 SW6       30.00F
IRONWOOD       CLOUDY    18  12  79 S6        29.89F
$$

ABBREVIATIONS USED IN REMARKS
   TC - TEMPERATURE IN CELSIUS
  WCI - WIND CHILL INDEX
   HX - HEAT INDEX
  VSB - VISIBILITY




USA.gov is the U.S. government's official web portal to all federal, state and local government web resources and services.